This is the latest recevied weather packets stored in our database for station/object N5GMJ. If no packets are shown the sender has not sent any weather packets the latest 10 day(s).
| Time | Temp. | Humidity | Pressure | Rain* | Wind** | Luminosity | Snow |
|---|---|---|---|---|---|---|---|
| 1777136061 | 28.89° C | 69% | 1008.5 hPa | 0 mm | - | - | - |
| 1777135757 | 28.33° C | 73% | 1008.5 hPa | 0 mm | - | - | - |
| 1777135454 | 28.33° C | 75% | 1008.3 hPa | 0 mm | - | - | - |
| 1777135150 | 27.22° C | 75% | 1008.7 hPa | 0 mm | - | - | - |
| 1777134847 | 26.67° C | 77% | 1008.8 hPa | 0 mm | - | - | - |
| 1777134543 | 26.67° C | 77% | 1008.8 hPa | 0 mm | - | - | - |
| 1777134240 | 26.67° C | 79% | 1008.7 hPa | 0 mm | - | - | - |
| 1777133937 | 26.67° C | 79% | 1008.7 hPa | 0 mm | - | - | - |
| 1777133633 | 26.67° C | 79% | 1008.6 hPa | 0 mm | - | - | - |
| 1777133331 | 26.11° C | 79% | 1008.7 hPa | 0 mm | - | - | - |
| 1777133027 | 26.11° C | 80% | 1008.6 hPa | 0 mm | - | - | - |
| 1777132723 | 26.67° C | 79% | 1008.6 hPa | 0 mm | - | - | - |
| 1777132419 | 26.67° C | 81% | 1008.7 hPa | 0 mm | - | - | - |
| 1777132116 | 26.11° C | 80% | 1008.4 hPa | 0 mm | - | - | - |
| 1777131811 | 26.67° C | 79% | 1008.5 hPa | 0 mm | - | - | - |
| 1777131509 | 26.11° C | 80% | 1008.5 hPa | 0 mm | - | - | - |
| 1777131209 | 26.11° C | 81% | 1008.4 hPa | 0 mm | - | - | - |
| 1777130904 | 25.56° C | 82% | 1008.5 hPa | 0 mm | - | - | - |
| 1777130600 | 25.56° C | 82% | 1008.5 hPa | 0 mm | - | - | - |
| 1777130297 | 25° C | 82% | 1008.4 hPa | 0 mm | - | - | - |
| 1777129993 | 25° C | 84% | 1008.5 hPa | 0 mm | - | - | - |
| 1777129688 | 24.44° C | 84% | 1008.5 hPa | 0 mm | - | - | - |
| 1777129388 | 25° C | 84% | 1008.5 hPa | 0 mm | - | - | - |
| 1777129083 | 24.44° C | 85% | 1008.5 hPa | 0 mm | - | - | - |
| 1777128779 | 24.44° C | 85% | 1008.5 hPa | 0 mm | - | - | - |
* Rain latest hour (hover to see other rain measurements)
** Current wind speed in m/s (hover to see current wind gust speed)